SCP
0 0 0 0 0 0 0 0 0 0 0 0 0 0 0 0 0 0 0 0 0 0 0 0 0 0 0 0 0 0 0 0 0 0 0 0 0 0 0 0 0 0 0
0 0 0 0 0 0 0 0 0 0 0 0 0 0 0 0 0 0 0 0 0 0 0 0 0 0 0 0 0 0 0 0 0 0 0 0 0 0 0 0 0 0 0
0 0 0 0 0 0 0 0 0 0 0 0 0 0 0 0 0 0 0 0 0 0 0 0 0 0 0 0 0 0 0 0 0 0 0 0 0 0 0 0 0 0 0
0 0 0 0 0 0 0 0 0 0 0 0 0 0 0 0 0 0 0 0 0 0 0 0 0 0 0 0 0 0 0 0 0 0 0 0 0 0 0 0 0 0 0
0 0 0 0 0 0 0 0 0 0 0 0 0 0 0 0 0 0 0 0 0 0 0 0 0 0 0 0 0 0 0 0 0 0 0 0 0 0 0 0 0 0 0
0 0 0 0 0 0 0 0 0 0 0 0 0 0 0 0 0 0 0 0 0 0 0 0 0 0 0 0 0 0 0 0 0 0 0 0 0 0 0 0 0 0 0
0 0 0 0 0 0 0 0 0 0 0 0 0 0 0 0 0 0 0 0 0 0 0 0 0 0 0 0 0 0 0 0 0 0 0 0 0 0 0 0 0 0 0
0 0 0 0 0 0 0 0 0 0 0 0 0 0 0 0 0 0 0 0 0 0 0 0 0 0 0 0 0 0 0 0 0 0 0 0 0 0 0 0 0 0 0
0 0 0 0 0 0 0 0 0 0 0 0 0 0 0 0 0 0 0 0 0 0 0 0 0 0 0 0 0 0 0 0 0 0 0 0 0 0 0 0 0 0 0
0 0 0 0 0 0 0 0 0 0 0 0 0 0 0 0 0 0 0 0 0 0 0 0 0 0 0 0 0 0 0 0 0 0 0 0 0 0 0 0 0 0 0
0 0 0 0 0 0 0 0 0 0 0 0 0 0 0 0 0 0 0 0 0 0 0 0 0 0 0 0 0 0 0 0 0 0 0 0 0 0 0 0 0 0 0
0 0 0 0 0 0 0 0 0 0 0 0 0 0 0 0 0 0 0 0 0 0 0 0 0 0 0 0 0 0 0 0 0 0 0 0 0 0 0 0 0 0 0
0 0 0 0 0 0 0 0 0 0 0 0 0 0 0 0 0 0 0 0 0 0 0 0 0 0 0 0 0 0 0 0 0 0 0 0 0 0 0 0 0 0 0
0 0 0 0 0 0 0 0 0 0 0 0 0 0 0 0 0 0 0 0 0 0 0 0 0 0 0 0 0 0 0 0 0 0 0 0 0 0 0 0 0 0 0
0 0 0 0 0 0 0 0 0 0 0 0 0 0 0 0 0 0 0 0 0 0 0 0 0 0 0 0 0 0 0 0 0 0 0 0 0 0 0 0 0 0 0
0 0 0 0 0 0 0 0 0 0 0 0 0 0 0 0 0 0 0 0 0 0 0 0 0 0 0 0 0 0 0 0 0 0 0 0 0 0 0 0 0 0 0
0 0 0 0 0 0 0 0 0 0 0 0 0 0 0 0 0 0 0 0 0 0 0 0 0 0 0 0 0 0 0 0 0 0 0 0 0 0 0 0 0 0 0
0 0 0 0 0 0 0 0 0 0 0 0 0 0 0 0 0 0 0 0 0 0 0 0 0 0 0 0 0 0 0 0 0 0 0 0 0 0 0 0 0 0 0
0 0 0 0 0 0 0 0 0 0 0 0 0 0 0 0 0 0 0 0 0 0 0 0 0 0 0 0 0 0 0 0 0 0 0 0 0 0 0 0 0 0 0
0 0 0 0 0 0 0 0 0 0 0 0 0 0 0 0 0 0 0 0 0 0 0 0 0 0 0 0 0 0 0 0 0 0 0 0 0 0 0 0 0 0 0
0 0 0 0 0 0 0 0 0 0 0 0 0 0 0 0 0 0 0 0 0 0 0 0 0 0 0 0 0 0 0 0 0 0 0 0 0 0 0 0 0 0 0
0 0 0 0 0 0 0 0 0 0 0 0 0 0 0 0 0 0 0 0 0 0 0 0 0 0 0 0 0 0 0 0 0 0 0 0 0 0 0 0 0 0 0
0 0 0 0 0 0 0 0 0 0 0 0 0 0 0 0 0 0 0 0 0 0 0 0 0 0 0 0 0 0 0 0 0 0 0 0 0 0 0 0 0 0 0
0 0 0 0 0 0 0 0 0 0 0 0 0 0 0 0 0 0 0 0 0 0 0 0 0 0 0 0 0 0 0 0 0 0 0 0 0 0 0 0 0 0 0
0 0 0 0 0 0 0 0 0 0 0 0 0 0 0 0 0 0 0 0 0 0 0 0 0 0 0 0 0 0 0 0 0 0 0 0 0 0 0 0 0 0 0
0 0 0 0 0 0 0 0 0 0 0 0 0 0 0 0 0 0 0 0 0 0 0 0 0 0 0 0 0 0 0 0 0 0 0 0 0 0 0 0 0 0 0
Wind_Speed_500mb
33 32 31 30 28 27 25 23 21 19 18 16 15 15 15 15 15 14 15 15 15 15 14 12 13 12 6 3 13 20 26 21 23 18 10 8 5 6 7 2 6 10 20
35 35 34 33 32 31 29 27 25 24 22 19 19 18 18 19 18 18 17 19 17 17 15 10 9 7 8 8 14 19 27 24 28 20 15 10 8 4 8 10 15 24 20
38 36 37 37 35 34 31 31 29 28 25 23 21 21 21 20 20 19 18 17 18 18 16 12 8 3 12 14 9 21 25 25 22 19 14 10 6 8 11 18 17 17 18
41 41 41 39 37 37 36 35 32 31 28 26 24 24 22 20 18 16 18 22 23 21 19 16 12 8 12 14 20 27 28 27 22 21 13 8 4 6 9 15 11 13 14
47 46 45 43 41 41 39 38 36 34 31 29 28 27 25 19 21 25 25 25 26 23 22 20 19 17 17 14 19 23 26 25 23 21 13 6 3 5 9 12 5 9 11
54 52 52 48 48 46 45 43 41 37 34 32 32 30 28 24 28 29 33 32 32 29 27 25 23 21 20 19 18 23 28 28 20 21 17 9 7 8 10 10 9 8 8
63 60 58 57 56 55 51 47 45 43 41 39 35 31 34 31 31 33 36 34 32 30 28 27 25 27 20 17 21 23 33 33 22 19 18 14 12 12 16 17 11 9 8
71 69 67 65 63 61 59 57 54 51 48 45 37 23 19 26 36 39 43 39 33 29 25 27 28 30 28 23 27 27 33 34 26 23 22 20 17 19 22 21 16 13 10
78 77 74 72 70 67 67 65 61 59 54 51 46 31 13 21 16 20 22 22 20 18 22 26 29 32 32 31 30 32 29 31 35 31 26 23 23 22 24 23 20 16 14
85 83 80 78 75 75 74 71 67 64 60 56 53 56 52 41 22 16 29 31 30 29 33 33 34 37 36 36 39 38 31 30 33 35 32 27 27 30 28 28 25 22 20
88 89 88 82 82 84 79 77 74 71 69 67 66 56 58 59 57 53 40 38 45 44 48 46 45 47 49 49 48 39 33 34 35 38 36 33 34 36 31 32 30 27 26
88 88 89 89 91 90 87 83 81 77 73 72 70 68 67 63 65 65 64 60 53 46 46 48 47 49 52 54 52 48 42 39 40 43 43 40 39 42 38 36 34 33 31
94 89 87 89 94 97 94 89 87 84 80 80 77 77 72 73 68 66 64 62 61 60 59 60 56 58 59 58 54 55 51 42 45 47 47 45 44 47 44 44 42 40 36
92 86 83 82 84 88 90 92 92 90 86 85 85 80 78 75 73 73 74 69 62 71 72 75 71 68 65 65 61 59 60 58 49 50 50 50 51 53 51 52 52 48 43
89 84 82 79 76 72 76 82 89 90 89 89 89 85 83 81 76 75 76 71 75 63 62 77 75 68 65 70 65 62 64 63 60 52 55 57 55 58 58 58 59 55 49
91 85 82 80 75 70 70 71 74 78 82 85 88 88 86 83 82 80 78 78 79 83 74 62 74 74 67 65 61 58 62 66 64 59 58 61 58 61 62 63 64 62 57
92 89 81 76 73 72 71 70 71 72 76 79 81 82 80 76 75 72 66 70 80 82 90 85 82 79 78 71 71 72 64 73 64 65 60 66 63 63 66 67 69 68 63
88 87 81 73 69 71 71 70 70 73 76 79 77 75 72 63 62 60 63 72 78 79 82 84 81 75 72 70 58 66 65 62 73 65 72 72 69 67 69 70 72 71 67
80 81 81 76 71 68 70 69 70 71 75 76 73 71 68 62 61 64 65 66 70 73 74 75 75 73 69 69 65 65 69 66 80 68 74 74 74 71 69 72 73 73 70
73 75 74 74 70 69 69 70 71 71 74 73 69 67 63 64 63 59 65 65 64 67 67 69 70 72 78 65 67 69 66 72 80 84 73 78 82 75 76 74 76 75 75
66 67 69 70 70 70 70 71 70 71 71 70 68 69 66 65 62 61 64 60 61 52 69 63 63 66 72 73 72 71 76 68 79 90 72 85 87 83 84 79 79 78 79
61 62 65 66 66 69 70 67 65 67 70 74 76 69 64 59 60 58 60 51 55 56 61 64 67 66 76 66 61 66 76 74 86 83 96 87 91 90 87 84 80 77 77
54 56 58 58 61 63 62 60 60 63 65 68 73 64 62 60 61 57 55 58 59 62 64 60 60 62 58 55 56 54 66 68 79 79 54 71 88 95 92 88 83 68 68
50 52 55 57 59 60 60 61 61 63 66 67 64 63 59 62 61 59 57 62 54 56 59 61 62 61 57 58 58 56 54 48 54 65 71 57 62 71 80 90 80 65 57
45 47 48 51 54 54 57 59 57 60 60 59 57 63 60 62 60 56 56 53 57 58 58 56 55 56 57 56 55 49 44 42 48 53 56 58 61 59 53 49 43 45 56
38 39 40 43 44 43 40 34 39 47 57 61 56 49 54 56 61 59 58 59 56 57 56 53 56 54 50 48 43 37 33 35 39 42 48 48 49 45 35 47 50 57 68
Wind_Direction_500mb
210 212 211 211 210 213 215 218 223 233 242 243 243 248 254 261 267 270 277 283 286 294 307 321 340 351 360 305 330 349 356 4 359 354 338 323 322 266 229 211 106 70 77
214 214 217 217 217 219 220 225 229 236 243 247 250 253 259 265 271 273 277 282 284 288 296 302 318 321 352 317 322 345 0 359 354 353 353 5 45 69 69 85 103 95 85
217 218 220 222 223 225 225 229 233 240 246 250 253 257 260 268 278 281 283 284 286 282 288 284 283 282 337 329 293 333 348 356 1 359 355 3 11 64 103 95 81 90 85
221 221 224 225 227 229 230 232 235 241 246 251 255 258 261 268 274 283 293 294 284 283 281 272 263 249 310 312 303 319 346 338 345 350 352 349 13 138 115 116 117 99 86
227 226 227 228 230 231 232 235 237 240 246 251 253 258 263 262 278 277 284 287 280 277 276 268 267 257 281 289 293 300 314 328 335 339 337 334 257 208 162 164 152 110 99
231 230 231 231 232 233 235 236 238 241 244 249 254 256 260 261 272 273 280 278 278 272 266 259 255 256 268 270 285 294 304 308 317 332 325 303 245 212 189 167 168 124 107
234 233 234 234 235 236 238 240 242 244 243 246 251 258 260 258 264 269 269 272 273 270 262 256 258 260 263 270 286 286 299 302 297 315 307 283 250 216 189 187 196 173 152
235 235 235 237 238 238 240 241 241 244 244 245 244 243 252 266 267 261 264 263 266 265 261 259 260 260 266 275 287 299 288 292 289 288 287 276 248 219 213 213 205 194 196
238 238 238 238 239 239 241 243 244 243 246 248 244 233 225 237 224 256 251 245 240 248 253 254 264 261 265 265 270 278 277 284 286 276 276 265 246 226 227 222 217 214 212
240 240 241 239 240 242 241 244 246 246 245 244 247 243 241 238 238 256 249 249 248 257 250 252 251 253 259 270 266 266 272 276 272 271 271 264 242 230 234 227 224 225 223
242 242 242 242 241 243 243 244 245 244 246 246 248 249 247 247 245 248 254 253 250 261 264 260 258 256 255 256 259 264 269 271 267 265 262 258 246 239 232 228 230 230 230
242 242 243 243 243 244 244 244 246 247 247 249 249 249 249 245 245 242 244 250 256 259 261 262 266 266 261 260 260 260 254 263 266 263 262 257 251 243 238 231 229 234 236
245 243 243 243 243 244 244 244 246 248 247 249 249 251 251 251 253 250 249 257 250 255 255 259 259 262 265 265 264 261 258 262 260 258 258 255 253 243 239 235 232 237 239
250 251 248 246 246 247 246 246 246 248 248 249 250 250 253 253 252 253 253 251 249 254 258 256 261 262 269 271 268 262 258 257 257 256 252 250 249 243 237 234 235 238 238
251 251 251 249 247 248 247 246 246 248 248 248 249 250 252 255 254 253 255 254 255 248 252 263 266 268 268 270 268 262 260 256 254 254 249 248 249 245 239 233 234 238 238
248 248 248 249 249 247 247 246 246 246 247 246 248 249 250 252 254 255 254 251 253 258 253 258 264 271 275 274 270 266 264 258 253 252 248 250 250 247 241 236 235 237 238
247 247 247 247 246 246 247 246 245 244 243 246 247 248 249 250 253 254 256 254 253 257 260 265 264 269 272 277 276 270 264 264 245 254 255 248 249 251 243 238 238 238 239
246 246 246 245 244 243 245 244 245 244 245 244 247 249 251 248 245 250 252 253 255 258 261 267 269 270 272 275 276 271 267 256 247 247 255 246 243 251 248 242 241 240 241
247 246 244 243 242 241 242 242 243 244 245 246 248 249 251 245 247 252 253 254 257 259 259 262 267 270 272 274 261 269 261 262 247 247 249 249 245 249 252 246 244 244 243
244 245 242 242 242 242 243 243 243 243 244 245 247 248 250 246 251 254 256 258 257 259 258 259 263 269 268 268 271 266 264 264 258 243 243 256 247 246 252 247 244 244 244
240 241 240 239 240 240 242 242 243 244 246 246 246 245 250 245 250 251 256 253 256 259 259 260 265 266 267 263 273 279 271 274 266 252 243 250 248 246 250 249 244 243 243
238 236 237 240 240 241 243 245 244 245 244 245 245 250 243 248 250 250 250 248 253 255 262 261 266 262 274 268 276 273 286 270 261 259 246 252 248 248 249 251 248 245 245
236 236 238 242 244 248 248 246 245 245 247 247 251 247 247 248 249 246 248 250 250 250 258 258 270 269 272 276 274 277 277 277 272 261 248 258 252 252 250 249 250 245 249
236 239 241 243 245 247 246 244 242 240 243 246 246 243 246 246 244 242 247 252 250 254 257 258 261 270 276 275 272 275 275 275 272 263 253 263 261 258 254 252 255 249 246
233 236 239 241 243 245 245 244 241 238 239 243 241 241 241 245 247 251 250 249 250 252 255 260 266 268 270 271 273 271 272 271 267 262 255 261 262 257 254 253 238 240 242
237 238 238 240 242 242 241 237 235 235 237 237 232 239 243 245 246 246 249 247 251 256 259 259 263 264 266 260 266 272 264 260 259 261 264 253 256 256 253 251 251 241 239
Wind_Speed_850mb
33 32 31 30 28 27 25 23 21 19 18 16 15 15 15 15 15 14 15 15 15 15 14 12 13 12 6 3 13 20 26 21 23 18 10 8 5 6 7 2 6 10 20
35 35 34 33 32 31 29 27 25 24 22 19 19 18 18 19 18 18 17 19 17 17 15 10 9 7 8 8 14 19 27 24 28 20 15 10 8 4 8 10 15 24 20
38 36 37 37 35 34 31 31 29 28 25 23 21 21 21 20 20 19 18 17 18 18 16 12 8 3 12 14 9 21 25 25 22 19 14 10 6 8 11 18 17 17 18
41 41 41 39 37 37 36 35 32 31 28 26 24 24 22 20 18 16 18 22 23 21 19 16 12 8 12 14 20 27 28 27 22 21 13 8 4 6 9 15 11 13 14
47 46 45 43 41 41 39 38 36 34 31 29 28 27 25 19 21 25 25 25 26 23 22 20 19 17 17 14 19 23 26 25 23 21 13 6 3 5 9 12 5 9 11
54 52 52 48 48 46 45 43 41 37 34 32 32 30 28 24 28 29 33 32 32 29 27 25 23 21 20 19 18 23 28 28 20 21 17 9 7 8 10 10 9 8 8
63 60 58 57 56 55 51 47 45 43 41 39 35 31 34 31 31 33 36 34 32 30 28 27 25 27 20 17 21 23 33 33 22 19 18 14 12 12 16 17 11 9 8
71 69 67 65 63 61 59 57 54 51 48 45 37 23 19 26 36 39 43 39 33 29 25 27 28 30 28 23 27 27 33 34 26 23 22 20 17 19 22 21 16 13 10
78 77 74 72 70 67 67 65 61 59 54 51 46 31 13 21 16 20 22 22 20 18 22 26 29 32 32 31 30 32 29 31 35 31 26 23 23 22 24 23 20 16 14
85 83 80 78 75 75 74 71 67 64 60 56 53 56 52 41 22 16 29 31 30 29 33 33 34 37 36 36 39 38 31 30 33 35 32 27 27 30 28 28 25 22 20
88 89 88 82 82 84 79 77 74 71 69 67 66 56 58 59 57 53 40 38 45 44 48 46 45 47 49 49 48 39 33 34 35 38 36 33 34 36 31 32 30 27 26
88 88 89 89 91 90 87 83 81 77 73 72 70 68 67 63 65 65 64 60 53 46 46 48 47 49 52 54 52 48 42 39 40 43 43 40 39 42 38 36 34 33 31
94 89 87 89 94 97 94 89 87 84 80 80 77 77 72 73 68 66 64 62 61 60 59 60 56 58 59 58 54 55 51 42 45 47 47 45 44 47 44 44 42 40 36
92 86 83 82 84 88 90 92 92 90 86 85 85 80 78 75 73 73 74 69 62 71 72 75 71 68 65 65 61 59 60 58 49 50 50 50 51 53 51 52 52 48 43
89 84 82 79 76 72 76 82 89 90 89 89 89 85 83 81 76 75 76 71 75 63 62 77 75 68 65 70 65 62 64 63 60 52 55 57 55 58 58 58 59 55 49
91 85 82 80 75 70 70 71 74 78 82 85 88 88 86 83 82 80 78 78 79 83 74 62 74 74 67 65 61 58 62 66 64 59 58 61 58 61 62 63 64 62 57
92 89 81 76 73 72 71 70 71 72 76 79 81 82 80 76 75 72 66 70 80 82 90 85 82 79 78 71 71 72 64 73 64 65 60 66 63 63 66 67 69 68 63
88 87 81 73 69 71 71 70 70 73 76 79 77 75 72 63 62 60 63 72 78 79 82 84 81 75 72 70 58 66 65 62 73 65 72 72 69 67 69 70 72 71 67
80 81 81 76 71 68 70 69 70 71 75 76 73 71 68 62 61 64 65 66 70 73 74 75 75 73 69 69 65 65 69 66 80 68 74 74 74 71 69 72 73 73 70
73 75 74 74 70 69 69 70 71 71 74 73 69 67 63 64 63 59 65 65 64 67 67 69 70 72 78 65 67 69 66 72 80 84 73 78 82 75 76 74 76 75 75
66 67 69 70 70 70 70 71 70 71 71 70 68 69 66 65 62 61 64 60 61 52 69 63 63 66 72 73 72 71 76 68 79 90 72 85 87 83 84 79 79 78 79
61 62 65 66 66 69 70 67 65 67 70 74 76 69 64 59 60 58 60 51 55 56 61 64 67 66 76 66 61 66 76 74 86 83 96 87 91 90 87 84 80 77 77
54 56 58 58 61 63 62 60 60 63 65 68 73 64 62 60 61 57 55 58 59 62 64 60 60 62 58 55 56 54 66 68 79 79 54 71 88 95 92 88 83 68 68
50 52 55 57 59 60 60 61 61 63 66 67 64 63 59 62 61 59 57 62 54 56 59 61 62 61 57 58 58 56 54 48 54 65 71 57 62 71 80 90 80 65 57
45 47 48 51 54 54 57 59 57 60 60 59 57 63 60 62 60 56 56 53 57 58 58 56 55 56 57 56 55 49 44 42 48 53 56 58 61 59 53 49 43 45 56
38 39 40 43 44 43 40 34 39 47 57 61 56 49 54 56 61 59 58 59 56 57 56 53 56 54 50 48 43 37 33 35 39 42 48 48 49 45 35 47 50 57 68
Wind_Direction_850mb
210 212 211 211 210 213 215 218 223 233 242 243 243 248 254 261 267 270 277 283 286 294 307 321 340 351 360 305 330 349 356 4 359 354 338 323 322 266 229 211 106 70 77
214 214 217 217 217 219 220 225 229 236 243 247 250 253 259 265 271 273 277 282 284 288 296 302 318 321 352 317 322 345 0 359 354 353 353 5 45 69 69 85 103 95 85
217 218 220 222 223 225 225 229 233 240 246 250 253 257 260 268 278 281 283 284 286 282 288 284 283 282 337 329 293 333 348 356 1 359 355 3 11 64 103 95 81 90 85
221 221 224 225 227 229 230 232 235 241 246 251 255 258 261 268 274 283 293 294 284 283 281 272 263 249 310 312 303 319 346 338 345 350 352 349 13 138 115 116 117 99 86
227 226 227 228 230 231 232 235 237 240 246 251 253 258 263 262 278 277 284 287 280 277 276 268 267 257 281 289 293 300 314 328 335 339 337 334 257 208 162 164 152 110 99
231 230 231 231 232 233 235 236 238 241 244 249 254 256 260 261 272 273 280 278 278 272 266 259 255 256 268 270 285 294 304 308 317 332 325 303 245 212 189 167 168 124 107
234 233 234 234 235 236 238 240 242 244 243 246 251 258 260 258 264 269 269 272 273 270 262 256 258 260 263 270 286 286 299 302 297 315 307 283 250 216 189 187 196 173 152
235 235 235 237 238 238 240 241 241 244 244 245 244 243 252 266 267 261 264 263 266 265 261 259 260 260 266 275 287 299 288 292 289 288 287 276 248 219 213 213 205 194 196
238 238 238 238 239 239 241 243 244 243 246 248 244 233 225 237 224 256 251 245 240 248 253 254 264 261 265 265 270 278 277 284 286 276 276 265 246 226 227 222 217 214 212
240 240 241 239 240 242 241 244 246 246 245 244 247 243 241 238 238 256 249 249 248 257 250 252 251 253 259 270 266 266 272 276 272 271 271 264 242 230 234 227 224 225 223
242 242 242 242 241 243 243 244 245 244 246 246 248 249 247 247 245 248 254 253 250 261 264 260 258 256 255 256 259 264 269 271 267 265 262 258 246 239 232 228 230 230 230
242 242 243 243 243 244 244 244 246 247 247 249 249 249 249 245 245 242 244 250 256 259 261 262 266 266 261 260 260 260 254 263 266 263 262 257 251 243 238 231 229 234 236
245 243 243 243 243 244 244 244 246 248 247 249 249 251 251 251 253 250 249 257 250 255 255 259 259 262 265 265 264 261 258 262 260 258 258 255 253 243 239 235 232 237 239
250 251 248 246 246 247 246 246 246 248 248 249 250 250 253 253 252 253 253 251 249 254 258 256 261 262 269 271 268 262 258 257 257 256 252 250 249 243 237 234 235 238 238
251 251 251 249 247 248 247 246 246 248 248 248 249 250 252 255 254 253 255 254 255 248 252 263 266 268 268 270 268 262 260 256 254 254 249 248 249 245 239 233 234 238 238
248 248 248 249 249 247 247 246 246 246 247 246 248 249 250 252 254 255 254 251 253 258 253 258 264 271 275 274 270 266 264 258 253 252 248 250 250 247 241 236 235 237 238
247 247 247 247 246 246 247 246 245 244 243 246 247 248 249 250 253 254 256 254 253 257 260 265 264 269 272 277 276 270 264 264 245 254 255 248 249 251 243 238 238 238 239
246 246 246 245 244 243 245 244 245 244 245 244 247 249 251 248 245 250 252 253 255 258 261 267 269 270 272 275 276 271 267 256 247 247 255 246 243 251 248 242 241 240 241
247 246 244 243 242 241 242 242 243 244 245 246 248 249 251 245 247 252 253 254 257 259 259 262 267 270 272 274 261 269 261 262 247 247 249 249 245 249 252 246 244 244 243
244 245 242 242 242 242 243 243 243 243 244 245 247 248 250 246 251 254 256 258 257 259 258 259 263 269 268 268 271 266 264 264 258 243 243 256 247 246 252 247 244 244 244
240 241 240 239 240 240 242 242 243 244 246 246 246 245 250 245 250 251 256 253 256 259 259 260 265 266 267 263 273 279 271 274 266 252 243 250 248 246 250 249 244 243 243
238 236 237 240 240 241 243 245 244 245 244 245 245 250 243 248 250 250 250 248 253 255 262 261 266 262 274 268 276 273 286 270 261 259 246 252 248 248 249 251 248 245 245
236 236 238 242 244 248 248 246 245 245 247 247 251 247 247 248 249 246 248 250 250 250 258 258 270 269 272 276 274 277 277 277 272 261 248 258 252 252 250 249 250 245 249
236 239 241 243 245 247 246 244 242 240 243 246 246 243 246 246 244 242 247 252 250 254 257 258 261 270 276 275 272 275 275 275 272 263 253 263 261 258 254 252 255 249 246
233 236 239 241 243 245 245 244 241 238 239 243 241 241 241 245 247 251 250 249 250 252 255 260 266 268 270 271 273 271 272 271 267 262 255 261 262 257 254 253 238 240 242
237 238 238 240 242 242 241 237 235 235 237 237 232 239 243 245 246 246 249 247 251 256 259 259 263 264 266 260 266 272 264 260 259 261 264 253 256 256 253 251 251 241 239